sat.trackr.live / text

‹ back to catalog

STARLINK-4797

NORAD 53852 · 2022-114AL

PAYLOAD ACTIVE UNKNOWN

§ Identity

Operator
Country
US
Launch date
2022-09-19
Launch site
AFETR
Launch vehicle
Mass (kg)
RCS (m²)

Purposes: comms

External: N2YO · Heavens-Above · Gunter

§ Orbital elements

Epoch: 2026-05-25T03:16:25.070592Z

Period
95.44 min
Inclination
53.2135°
Eccentricity
0.0001602
Mean motion
15.08836431 rev/d
Perigee alt
538.6 km
Apogee alt
540.9 km
Semi-major
6,917.9 km
B*
6.7346e-5
RAAN
305.8663°
Arg perigee
94.8011°
Mean anomaly
265.3164°
Rev number
20,458

§ Raw data

STARLINK-47971 53852U 22114AL  26145.13640128  .00000784  00000+0  67346-4 0  99942 53852  53.2135 305.8663 0001602  94.8011 265.3164 15.08836431204582

JSON: /api/v1/satellites/53852 · /tle

For live sub-satellite position, see the globe view (requires WebGL).

§ Visibility from observer

Set your observer location to see the next 7 days of passes ≥ 10°. The values pass through the URL so the page stays shareable.

No JS? Fill the form by hand. The geolocation button needs JavaScript.